Find Starlink 37112

NORAD ID: 68707 Int'l Des: 2026-081 Owner: SPXS Country: US Constellation: starlink operational
LEOCIRCULAR

Current View

Loading 3D Globe...

About Starlink 37112

Description loading...

Upcoming Passes

Passes for default location (London). Set your location on the main map for personalized predictions.

Altitude History

Loading altitude history...

Two-Line Element Set

1 68707U 26081J 26150.91668981 -.02359278 00000-0 -57898-1 0 9993
2 68707 53.1591 12.2761 0001580 92.5740 161.2690 15.43621991 6062
Epoch: May 30, 2026 • Age: 10 hours

Current Status

Altitude 442.6 km
Velocity 7.65 km/s
Sub-Earth Point -1.35°S, 3.78°E
Launch Date Apr 14, 2026
Age 0.1 years
Type internet

Technical Details

Classification Payload
Mass 575.00 kg
Dry Mass 530.00 kg
Total Mass 575.00 kg
Length 0.30 m
Diameter 4.10 m
Span 29.00 m
Shape Box + pan
Manufacturer SPXS
Bus Type Starlink V2MO
Phase Status In Orbit
Owner/State SPXS/US

Most Searched